Weather History for KDMN - September, 2013

Change the Weather History Date:

Friday, September 27, 2013

  Actual Average Record
Temperature  
Mean Temperature 67 °F 69 °F  
Max Temperature 81 °F 85 °F 95 °F (1953)
Min Temperature 53 °F 54 °F 40 °F (1986)
Cooling Degree Days 4    
Growing Degree Days 20 (Base 50)    
Moisture  
Dew Point 46 °F    
Average Humidity 50    
Maximum Humidity 72    
Minimum Humidity 28    
Precipitation  
Precipitation 0.00 in 0.04 in 0.83 in (1983)
Month to date precipitation 3.07 1.18  
Year to date precipitation 9.31 8.77  
Sea Level Pressure  
Sea Level Pressure 29.72 in    
Wind  
Wind Speed 10 mph (West)    
Max Wind Speed 26 mph    
Max Gust Speed 37 mph    
Visibility 10 miles    
Events      
T = Trace of Precipitation, MM = Missing Value Source: NWS Daily Summary

Daily Weather History Graph

Daily Weather History Graph

Search for Another Location

Airport or City:

Trip Planner

Search our weather history database for the weather conditions in past years. The results will help you decide how hot, cold, wet, or windy it might be!

Date:

Astronomy

Sep. 27, 2013 Rise Set
Actual Time 7:02 AM MDT 7:00 PM MDT
Civil Twilight 6:38 AM MDT 7:24 PM MDT
Nautical Twilight 6:09 AM MDT 7:53 PM MDT
Astronomical Twilight 5:40 AM MDT 8:21 PM MDT
Moon 12:19 AM MDT (9/27) 2:23 PM MDT (9/27)
Length of Visible Light 12h 46m
Length of Day
11h 58m
Last Quarter, 44% of the Moon is Illuminated
Sep 27
Last Quarter
Oct 4
New
Oct 11
First Quarter
Oct 18
Full
Oct 26
Last Quarter

Hourly Weather History & Observations

Time (MDT) Temp. Dew Point Humidity Pressure Visibility Wind Dir Wind Speed Gust Speed Precip Events Conditions
12:53 AM 66.0 °F 44.1 °F 45% 29.68 in 10.0 mi SW 3.5 mph - N/A   Mostly Cloudy
1:53 AM 66.0 °F 46.0 °F 48% 29.67 in 10.0 mi Calm Calm - N/A   Overcast
2:53 AM 63.0 °F 46.9 °F 56% 29.68 in 10.0 mi West 3.5 mph - N/A   Clear
3:53 AM 63.0 °F 46.9 °F 56% 29.68 in 10.0 mi SSW 4.6 mph - N/A   Clear
4:53 AM 63.0 °F 48.0 °F 58% 29.67 in 10.0 mi South 6.9 mph - N/A   Clear
5:53 AM 63.0 °F 48.9 °F 60% 29.69 in 10.0 mi SW 4.6 mph - N/A   Overcast
6:53 AM 64.0 °F 52.0 °F 65% 29.70 in 10.0 mi WSW 5.8 mph - N/A   Overcast
7:53 AM 63.0 °F 53.1 °F 70% 29.73 in 10.0 mi Calm Calm - N/A   Mostly Cloudy
8:53 AM 69.1 °F 54.0 °F 58% 29.73 in 10.0 mi SW 5.8 mph - N/A   Clear
9:53 AM 73.9 °F 54.0 °F 50% 29.73 in 10.0 mi West 13.8 mph - N/A   Partly Cloudy
10:53 AM 77.0 °F 46.9 °F 34% 29.73 in 10.0 mi SW 13.8 mph 24.2 mph N/A   Partly Cloudy
11:53 AM 77.0 °F 44.1 °F 31% 29.72 in 10.0 mi WSW 15.0 mph 25.3 mph N/A   Scattered Clouds
12:53 PM 79.0 °F 44.1 °F 29% 29.70 in 10.0 mi SW 13.8 mph 25.3 mph N/A   Partly Cloudy
1:53 PM 80.1 °F 44.1 °F 28% 29.68 in 10.0 mi West 18.4 mph 33.4 mph N/A   Scattered Clouds
2:53 PM 80.1 °F 45.0 °F 29% 29.67 in 10.0 mi West 16.1 mph 27.6 mph N/A   Scattered Clouds
3:53 PM 79.0 °F 42.1 °F 27% 29.67 in 10.0 mi West 25.3 mph 32.2 mph N/A   Clear
4:53 PM 79.0 °F 43.0 °F 28% 29.68 in 10.0 mi West 19.6 mph 28.8 mph N/A   Clear
5:53 PM 75.9 °F 43.0 °F 31% 29.70 in 10.0 mi WNW 17.3 mph 25.3 mph N/A   Clear
6:53 PM 72.0 °F 42.1 °F 34% 29.75 in 10.0 mi WNW 16.1 mph 21.9 mph N/A   Clear
7:53 PM 68.0 °F 42.1 °F 39% 29.78 in 10.0 mi WNW 12.7 mph - N/A   Clear
8:53 PM 64.9 °F 41.0 °F 42% 29.81 in 10.0 mi WNW 9.2 mph - N/A   Clear
9:53 PM 64.0 °F 39.9 °F 41% 29.82 in 10.0 mi NW 6.9 mph - N/A   Partly Cloudy
10:53 PM 59.0 °F 41.0 °F 51% 29.84 in 10.0 mi WNW 5.8 mph - N/A   Clear
11:53 PM 57.0 °F 39.9 °F 53% 29.86 in 10.0 mi West 5.8 mph - N/A   Mostly Cloudy